Temperature
29 30 30 30 29 29 29 30 30 30 30 31 31 30 29 27 26 25 24 23 22 21 21 20 19 19 19 18 18 18 17 17 17 17 17 17 17 17 17 17 16 16 16 16
27 29 29 29 29 29 29 30 30 30 30 31 30 29 28 27 26 25 24 23 22 21 21 20 20 19 19 19 18 18 17 17 17 17 17 17 17 17 17 17 16 16 16 16
27 28 28 28 29 29 29 30 30 30 30 30 30 29 27 26 26 25 24 23 22 21 21 20 20 20 19 19 19 18 18 17 17 17 17 17 17 17 16 16 16 16 16 16
27 26 26 29 30 30 30 30 30 30 30 29 28 27 25 25 25 24 24 23 22 21 21 20 20 19 19 19 18 18 18 17 17 17 17 17 17 16 16 16 16 16 16 15
27 26 27 28 28 29 29 29 29 29 29 28 26 26 26 23 23 23 23 22 21 21 21 20 20 20 19 19 18 18 18 17 17 17 17 16 16 16 16 16 16 15 15 15
25 26 26 28 28 27 28 28 28 28 27 27 26 29 27 22 21 21 21 21 20 20 20 20 19 19 19 18 18 18 18 17 17 17 17 16 16 16 16 15 15 15 15 15
25 25 27 27 26 26 26 27 26 26 25 25 26 25 22 20 20 20 19 19 19 19 19 19 19 18 18 18 18 18 18 17 17 17 16 16 16 15 15 15 15 15 15 15
24 25 26 25 25 26 25 23 23 24 23 23 22 21 20 19 19 19 18 18 18 18 18 18 18 18 18 17 17 17 17 17 17 16 16 15 15 15 15 14 14 14 14 14
25 25 23 22 23 22 21 22 22 22 22 21 20 20 19 18 18 17 17 17 17 17 17 17 17 17 17 17 17 17 17 16 16 16 15 15 14 14 14 14 14 14 13 13
23 23 22 21 21 20 20 20 20 20 20 20 20 19 18 17 17 16 16 17 17 17 17 17 17 17 17 17 17 16 16 16 15 15 14 14 14 14 13 13 13 13 13 13
22 22 21 20 20 19 19 19 19 19 19 19 18 18 17 16 16 16 16 16 16 16 16 16 16 16 16 16 16 15 15 15 14 14 14 13 13 13 13 13 13 13 13 12
22 20 21 20 18 18 18 18 18 18 18 18 17 17 16 16 15 15 15 15 15 15 15 15 15 15 15 16 15 15 14 14 14 13 13 13 13 13 12 12 12 12 12 12
18 18 18 17 17 17 18 18 17 17 17 17 16 16 16 15 15 15 15 15 15 14 14 15 15 15 15 15 14 14 14 14 13 13 12 12 12 12 12 12 11 11 11 11
16 16 17 17 17 17 17 17 17 17 16 16 16 16 15 15 15 14 14 14 14 14 14 14 14 14 14 14 14 14 13 13 12 12 12 11 11 11 11 11 10 10 10 10
15 16 16 16 16 16 16 16 16 16 16 15 15 15 15 14 14 14 14 13 13 13 13 13 13 13 13 13 13 13 12 12 11 11 11 11 10 10 10 10 10 9 9 9
15 15 15 16 15 16 16 16 16 15 15 14 14 14 14 14 13 13 13 13 13 12 12 12 12 12 12 12 12 11 11 11 11 10 10 10 10 10 9 9 9 9 9 8
15 15 15 15 15 15 15 15 15 15 14 14 14 13 13 13 13 12 12 12 12 12 12 12 11 11 11 11 10 10 10 10 10 10 10 10 9 9 9 9 8 8 8 8
14 14 15 15 15 15 15 15 14 14 14 13 13 13 12 12 12 12 12 11 11 11 11 11 11 10 10 10 10 10 9 9 9 9 9 9 9 8 8 8 8 8 8 7
13 14 14 14 14 14 14 14 14 14 13 13 13 12 12 12 11 11 11 10 10 10 10 10 10 10 9 9 9 9 9 9 9 8 8 8 8 8 8 8 8 7 7 7
13 13 13 13 13 13 13 13 13 13 13 12 12 12 11 11 11 10 10 10 10 10 9 9 9 9 9 9 9 9 8 8 8 8 8 8 8 8 8 7 7 7 7 7
12 12 12 13 13 13 13 12 12 12 12 12 11 11 11 11 10 10 10 9 9 9 9 9 9 9 9 9 9 8 8 8 8 8 8 8 8 8 7 7 7 7 7 7
11 11 11 12 12 12 12 12 12 12 11 11 11 11 10 10 10 9 9 9 9 9 8 9 9 9 9 9 8 8 8 8 8 8 8 8 8 7 7 7 7 7 7 7
10 10 11 11 11 11 11 11 11 11 11 11 10 10 10 10 10 9 9 8 8 8 8 8 8 8 8 8 8 8 8 8 8 8 8 8 8 7 7 7 7 7 7 7
10 10 10 10 10 10 10 10 10 10 10 10 10 9 9 9 9 9 9 9 9 8 8 8 8 8 8 8 8 8 8 8 8 8 8 8 8 8 8 7 7 7 7 7
9 9 9 9 10 10 10 9 9 9 9 9 9 9 9 9 9 9 9 9 9 8 8 8 8 8 8 8 8 8 8 8 8 8 8 8 8 8 8 8 8 8 7 7
9 9 9 9 9 9 9 10 9 9 9 9 9 9 8 9 8 8 8 8 8 8 8 8 8 8 8 8 8 8 8 8 8 8 8 8 8 8 8 8 8 8 8 8
8 9 9 9 9 9 9 9 9 9 9 9 9 8 8 8 8 8 8 8 8 8 8 8 8 8 9 9 9 9 9 9 8 8 8 8 8 8 8 8 8 8 8 8
Wind_Speed
14 8 8 12 15 17 18 17 14 12 12 8 4 4 4 6 7 8 10 11 11 11 10 10 10 10 9 8 7 7 7 7 6 6 5 5 5 5 5 4 5 4 4 4
14 12 12 13 13 15 16 15 15 13 11 6 3 3 4 6 8 9 10 10 11 11 11 12 11 11 10 9 8 7 7 7 6 6 6 5 4 4 4 4 3 3 3 3
14 13 12 16 17 16 15 13 13 13 9 4 4 3 4 5 7 8 9 10 10 10 10 11 11 11 11 10 9 8 7 6 6 6 6 5 5 4 4 4 3 3 3 3
11 9 15 12 8 13 15 13 12 9 5 3 3 2 2 3 5 6 7 9 9 9 10 10 10 11 10 10 9 9 8 7 6 6 6 6 5 5 4 3 3 3 3 2
12 15 15 7 6 10 13 13 10 9 6 3 1 3 3 2 2 4 5 6 7 8 9 9 10 11 11 10 10 9 8 7 6 6 6 6 6 5 4 4 4 3 3 3
11 15 17 10 7 5 8 11 6 6 5 3 4 7 2 3 2 3 4 5 6 7 8 9 9 10 11 10 9 8 7 7 6 6 6 6 6 5 5 4 4 4 3 3
16 15 12 3 5 7 11 6 2 3 3 3 3 2 3 3 3 4 5 6 6 7 7 7 8 9 9 8 8 7 6 6 6 6 6 5 5 4 5 5 4 4 4 3
16 17 12 4 6 6 0 3 2 1 2 2 2 3 4 5 5 5 6 6 7 7 6 6 7 8 8 7 6 6 6 6 5 5 4 5 5 4 4 5 5 5 5 4
10 8 2 2 1 2 2 1 2 1 1 3 3 4 4 5 5 5 6 6 6 7 7 6 5 6 7 5 5 6 6 5 5 5 4 4 5 5 5 5 4 4 4 4
4 4 2 1 0 1 1 1 1 1 1 3 4 5 5 5 5 5 5 6 6 7 7 6 5 5 5 5 5 5 6 5 5 4 4 3 3 3 4 4 5 5 5 4
7 4 3 3 1 0 1 1 2 2 2 3 5 5 6 5 5 5 5 5 5 5 5 5 5 5 4 4 4 5 5 4 4 4 4 3 3 1 1 2 2 4 4 5
5 1 2 1 0 0 1 2 2 3 4 4 5 5 6 5 5 5 5 5 5 6 5 5 4 4 3 3 4 4 4 4 3 3 3 4 4 3 7 5 5 4 3 2
3 3 2 1 1 1 1 2 2 3 4 5 5 5 6 6 5 5 5 5 5 5 5 4 4 4 3 2 3 3 3 3 3 3 3 3 4 4 3 3 6 6 5 5
2 2 2 2 1 1 1 2 3 4 4 5 5 5 6 6 5 5 5 5 5 5 5 4 4 4 2 2 2 3 2 2 2 2 3 3 3 3 4 4 4 3 4 6
3 3 3 2 2 2 3 4 4 4 5 5 5 4 4 5 5 5 5 5 5 5 4 4 4 3 2 2 2 2 2 2 1 2 2 2 3 3 3 4 4 4 4 5
4 4 3 3 4 4 4 4 4 4 4 4 4 4 3 4 5 5 5 5 4 4 3 3 3 3 2 2 2 2 2 3 2 2 2 2 3 3 3 4 4 5 5 5
5 4 4 4 4 5 4 4 4 4 4 4 4 4 4 5 5 5 5 5 5 4 3 3 3 2 2 2 2 2 2 3 3 2 2 3 3 3 4 4 4 4 5 5
7 6 5 5 5 4 4 4 4 4 4 4 5 5 5 5 5 5 5 5 5 5 4 3 3 2 2 2 2 2 2 2 2 2 3 3 3 3 4 4 5 5 5 6
7 7 7 6 5 4 4 4 4 4 5 5 6 5 5 5 5 5 5 5 5 4 3 3 3 2 3 2 2 2 3 3 3 3 3 4 4 3 3 4 4 4 5 5
6 6 6 6 6 5 4 4 5 5 5 5 6 6 6 6 6 6 5 4 3 3 4 3 3 3 3 3 1 3 3 3 3 4 3 3 4 4 4 4 4 4 4 4
3 3 3 4 4 5 5 5 5 5 5 6 6 6 7 6 6 6 5 5 4 4 4 4 3 3 3 2 2 3 3 3 4 3 4 4 4 4 4 4 4 4 4 4
1 2 2 3 4 5 4 5 5 6 7 7 7 7 7 7 7 6 5 4 5 4 3 4 3 4 2 0 2 3 4 4 3 3 3 3 4 4 4 4 4 4 4 5
2 3 3 4 5 6 6 6 6 7 7 7 7 7 6 6 5 5 5 5 5 4 3 4 5 5 2 2 2 3 3 3 3 3 3 3 3 3 4 4 4 5 5 5
4 4 5 5 6 7 7 7 7 7 8 7 6 6 6 5 4 4 5 7 5 3 3 6 5 3 5 2 2 2 2 2 2 2 3 3 3 3 3 4 4 5 5 6
5 6 6 7 7 6 7 7 8 8 8 7 7 6 4 3 3 4 4 5 5 3 3 5 6 4 3 1 1 1 2 2 2 1 2 2 3 3 3 4 4 4 5 5
6 6 6 6 6 6 5 5 6 6 6 6 6 5 4 4 4 3 3 4 4 3 2 3 3 4 2 1 1 2 2 2 3 3 3 3 3 4 3 3 4 4 4 4
7 7 6 6 5 5 5 5 5 5 5 6 6 5 4 4 3 3 3 3 3 3 2 2 2 2 1 1 1 1 2 2 3 3 3 4 3 3 3 4 4 4 4 5
Wind_Direction
245 247 218 214 211 209 219 235 243 240 244 248 240 229 206 188 181 177 176 178 181 181 176 175 174 174 176 176 176 179 182 184 188 186 184 184 183 185 190 198 205 207 210 211
232 231 230 233 223 215 222 232 241 250 249 250 236 216 197 190 188 186 184 184 182 182 178 179 178 176 173 173 173 177 181 180 179 178 176 175 175 175 180 188 194 192 199 203
228 219 220 230 226 220 220 225 233 237 240 231 227 222 208 199 199 197 191 188 185 181 178 177 178 175 173 172 171 174 176 176 176 178 177 176 176 177 180 183 181 182 184 192
230 205 228 232 215 221 223 225 229 242 250 247 256 247 208 206 207 201 195 188 183 178 174 172 172 171 169 167 171 173 174 176 177 179 177 174 175 173 175 177 177 175 171 174
228 226 231 211 198 209 215 225 224 231 236 234 219 206 182 146 188 195 190 181 174 174 169 164 166 167 165 166 169 172 174 176 176 179 178 178 179 176 176 175 174 170 162 159
228 237 234 220 177 200 218 222 205 215 226 232 231 244 185 83 104 136 141 142 149 156 154 157 160 163 166 167 169 174 174 175 177 178 177 180 179 177 173 170 170 162 144 143
229 234 238 153 147 182 215 217 152 197 217 226 228 323 66 99 108 119 124 130 137 141 145 148 153 159 164 163 167 166 165 165 168 171 174 172 168 169 168 169 167 160 148 143
225 232 225 147 180 208 290 49 70 166 186 183 126 101 100 106 111 118 121 125 127 127 126 131 146 154 155 155 151 150 153 156 157 160 164 160 161 162 164 167 165 162 155 147
224 227 112 126 149 24 355 4 23 50 130 157 150 131 117 115 113 113 115 115 117 121 120 119 132 145 142 140 146 150 145 146 149 154 161 165 167 166 168 177 183 178 173 170
225 195 163 151 144 340 334 327 358 52 144 159 150 136 127 121 113 107 107 112 115 117 116 113 113 114 125 137 149 152 151 156 161 165 166 159 168 181 188 191 192 186 185 185
228 213 208 203 210 56 70 88 95 100 117 133 137 133 124 116 108 104 102 101 104 106 112 113 115 116 130 140 152 156 159 167 171 173 169 161 150 95 213 194 206 205 198 188
230 191 256 214 3 220 154 130 116 114 109 113 130 131 123 114 107 109 110 108 104 101 102 104 106 106 110 127 151 160 171 177 179 177 175 176 162 126 53 55 73 78 70 122
301 316 317 259 246 228 186 139 131 127 123 123 125 128 124 119 115 113 112 111 109 109 108 105 103 100 100 122 146 161 177 182 184 184 181 183 181 176 157 87 70 72 84 100
286 279 244 230 247 189 157 143 135 127 122 121 122 122 123 123 121 118 114 112 111 111 110 110 105 91 78 108 137 149 168 164 188 186 186 190 192 190 181 169 156 121 90 105
262 271 264 241 198 176 161 154 149 137 124 118 116 122 128 131 126 118 116 114 115 114 108 104 97 85 72 99 129 147 160 161 174 181 180 181 180 179 169 162 155 144 135 119
277 266 244 217 203 191 181 171 162 147 130 120 113 109 111 115 113 111 112 118 119 109 100 96 88 79 76 88 108 125 126 109 137 166 157 161 166 165 159 157 157 154 155 151
251 236 228 221 213 204 199 196 185 165 150 142 137 133 134 132 127 124 122 119 110 102 95 86 79 77 90 108 127 126 122 127 139 145 145 152 153 156 155 156 161 162 161 152
260 253 251 244 236 217 203 194 180 168 160 154 147 143 149 147 139 131 130 127 116 103 91 86 83 94 104 110 123 127 136 136 140 137 138 139 138 145 149 155 161 162 154 147
261 249 246 242 238 229 207 190 181 169 155 153 147 139 135 130 129 131 133 132 126 116 102 97 101 120 113 109 124 133 127 129 127 123 126 132 140 138 140 147 153 156 152 153
258 250 242 227 218 209 198 182 169 157 151 148 141 135 132 133 136 136 135 124 105 96 114 116 130 118 118 122 165 127 125 129 128 128 132 139 139 137 138 143 149 156 161 163
232 224 219 210 198 188 179 172 162 151 146 147 144 140 138 138 138 138 137 125 112 108 119 135 134 120 119 122 170 121 122 122 126 131 139 140 138 140 144 152 160 164 167 172
158 146 157 162 162 155 155 156 154 152 146 143 140 137 137 138 137 132 122 116 124 133 141 133 121 100 95 176 132 122 122 126 131 137 143 146 148 154 158 163 171 180 185 188
110 112 121 133 139 140 138 140 142 139 136 136 138 139 136 132 136 140 136 133 138 155 152 115 105 124 214 203 130 127 128 133 137 143 149 160 165 169 172 181 190 193 193 194
97 104 110 119 124 124 123 121 121 122 122 123 125 127 129 131 129 121 116 125 131 145 130 110 128 175 234 196 155 143 141 150 164 170 172 176 178 184 189 197 204 204 203 206
96 101 108 118 120 118 116 117 118 119 117 115 115 117 119 115 118 117 122 135 143 172 144 141 167 212 223 200 189 183 189 193 202 215 212 218 221 220 222 224 224 221 218 220
92 94 94 95 99 109 116 118 119 120 118 116 114 116 115 111 110 117 134 148 155 171 166 156 171 206 213 223 237 242 245 217 224 240 247 250 250 250 248 243 234 231 227 227
92 92 93 94 96 102 110 114 117 119 118 116 115 113 112 115 120 125 136 147 157 162 164 174 187 202 224 246 258 270 270 266 264 263 257 253 257 258 251 242 246 245 247 245
Height
1483 1479 1481 1484 1487 1491 1495 1492 1495 1492 1490 1486 1487 1490 1494 1497 1500 1503 1506 1509 1512 1514 1516 1518 1520 1522 1524 1526 1527 1529 1530 1531 1532 1533 1533 1534 1535 1536 1537 1538 1539 1540 1541 1541
1488 1482 1483 1485 1483 1485 1488 1487 1487 1486 1486 1482 1486 1490 1493 1496 1498 1501 1503 1506 1509 1512 1514 1516 1518 1520 1522 1524 1525 1527 1528 1529 1530 1531 1532 1533 1534 1535 1536 1536 1537 1538 1539 1539
1486 1480 1486 1490 1481 1481 1483 1482 1483 1486 1483 1482 1486 1489 1491 1494 1496 1498 1501 1504 1506 1509 1511 1513 1516 1518 1520 1522 1523 1525 1526 1528 1529 1530 1531 1532 1533 1533 1534 1535 1536 1536 1537 1537
1482 1489 1500 1477 1470 1472 1476 1478 1479 1480 1481 1484 1486 1489 1491 1493 1494 1496 1499 1501 1504 1506 1508 1511 1513 1516 1518 1520 1521 1523 1525 1526 1527 1528 1529 1530 1531 1531 1532 1533 1533 1534 1534 1534
1482 1486 1482 1475 1473 1473 1477 1478 1477 1479 1482 1484 1486 1488 1489 1492 1493 1495 1497 1499 1501 1503 1506 1508 1510 1513 1515 1517 1519 1521 1523 1524 1525 1526 1527 1528 1528 1529 1530 1531 1531 1531 1532 1532
1483 1486 1485 1472 1471 1475 1477 1481 1477 1480 1482 1484 1485 1482 1485 1491 1492 1493 1495 1497 1499 1501 1503 1505 1508 1510 1513 1515 1517 1518 1520 1521 1522 1523 1524 1525 1526 1527 1527 1528 1528 1529 1529 1530
1482 1482 1472 1469 1474 1477 1484 1480 1479 1480 1482 1484 1484 1485 1489 1490 1491 1493 1494 1495 1497 1499 1501 1503 1505 1508 1510 1512 1514 1516 1517 1519 1520 1521 1521 1522 1523 1524 1525 1525 1526 1526 1526 1527
1478 1481 1477 1473 1474 1475 1477 1480 1480 1481 1483 1485 1486 1488 1489 1490 1491 1492 1493 1495 1496 1498 1500 1501 1503 1505 1508 1510 1511 1513 1514 1516 1517 1518 1519 1519 1520 1521 1522 1522 1523 1524 1524 1524
1468 1472 1475 1476 1477 1479 1480 1481 1482 1483 1484 1485 1487 1488 1489 1491 1492 1493 1493 1494 1496 1497 1498 1500 1502 1504 1505 1507 1509 1511 1511 1513 1514 1515 1516 1516 1517 1518 1519 1519 1520 1521 1521 1521
1471 1472 1475 1477 1478 1480 1481 1482 1483 1483 1484 1485 1487 1488 1489 1491 1492 1493 1493 1494 1495 1496 1498 1499 1501 1502 1504 1506 1507 1508 1509 1510 1511 1513 1513 1514 1514 1516 1516 1517 1517 1518 1518 1518
1472 1474 1476 1478 1479 1480 1481 1482 1482 1483 1484 1486 1487 1488 1489 1490 1491 1492 1493 1494 1494 1495 1497 1498 1499 1500 1502 1503 1504 1505 1506 1508 1509 1510 1510 1511 1511 1512 1513 1513 1514 1515 1515 1515
1470 1475 1476 1478 1480 1480 1481 1482 1482 1483 1484 1486 1487 1488 1489 1490 1491 1492 1493 1493 1494 1495 1496 1497 1497 1498 1499 1500 1501 1502 1504 1505 1505 1506 1507 1508 1508 1508 1509 1510 1510 1510 1511 1512
1478 1478 1478 1479 1479 1480 1480 1481 1482 1483 1484 1485 1487 1488 1489 1489 1490 1491 1492 1493 1494 1494 1495 1496 1496 1496 1497 1498 1499 1500 1501 1501 1502 1503 1503 1504 1505 1505 1505 1506 1507 1507 1508 1509
1478 1478 1478 1478 1479 1479 1480 1481 1482 1483 1484 1485 1486 1487 1488 1489 1490 1491 1492 1492 1493 1494 1494 1495 1495 1495 1495 1496 1496 1497 1498 1498 1499 1499 1500 1501 1502 1502 1503 1503 1504 1504 1505 1506
1477 1477 1478 1478 1479 1479 1480 1481 1482 1483 1484 1485 1486 1487 1488 1489 1489 1490 1491 1491 1492 1493 1494 1494 1494 1494 1494 1494 1494 1494 1495 1495 1496 1497 1497 1498 1499 1500 1500 1501 1502 1502 1502 1503
1476 1476 1476 1477 1478 1479 1480 1481 1481 1482 1483 1484 1485 1487 1487 1488 1488 1489 1489 1490 1491 1492 1492 1492 1492 1492 1492 1492 1492 1492 1492 1492 1494 1495 1495 1495 1496 1497 1498 1499 1499 1500 1501 1502
1475 1475 1475 1476 1477 1478 1479 1480 1481 1482 1482 1483 1485 1485 1486 1487 1487 1488 1489 1489 1490 1490 1490 1490 1490 1490 1490 1490 1491 1490 1491 1491 1492 1493 1493 1494 1494 1495 1496 1497 1498 1499 1500 1500
1474 1474 1474 1475 1476 1477 1478 1479 1480 1481 1482 1483 1483 1484 1486 1486 1487 1487 1488 1489 1489 1489 1489 1489 1489 1489 1489 1489 1489 1489 1490 1490 1490 1491 1492 1492 1493 1494 1495 1496 1497 1498 1498 1499
1471 1472 1472 1473 1474 1475 1476 1477 1479 1480 1481 1482 1482 1483 1484 1485 1486 1487 1487 1488 1489 1489 1489 1488 1488 1488 1488 1488 1489 1489 1489 1489 1489 1490 1491 1491 1492 1493 1494 1495 1496 1497 1498 1499
1468 1469 1470 1470 1472 1473 1475 1476 1477 1478 1479 1480 1481 1482 1483 1485 1486 1486 1487 1488 1488 1488 1488 1488 1488 1488 1488 1488 1488 1489 1489 1489 1489 1490 1490 1491 1492 1493 1493 1494 1495 1496 1497 1498
1465 1466 1467 1468 1469 1471 1473 1474 1475 1477 1478 1479 1481 1482 1483 1484 1485 1486 1487 1488 1487 1487 1488 1488 1488 1488 1488 1488 1489 1489 1489 1489 1489 1490 1490 1491 1492 1492 1493 1494 1495 1496 1496 1497
1463 1464 1465 1466 1467 1469 1471 1472 1474 1475 1477 1478 1480 1481 1482 1484 1485 1486 1487 1488 1487 1487 1488 1489 1489 1489 1489 1489 1490 1490 1490 1490 1490 1491 1491 1491 1492 1493 1493 1494 1494 1495 1496 1497
1462 1463 1464 1466 1467 1468 1470 1472 1473 1475 1477 1478 1480 1481 1482 1484 1485 1486 1487 1488 1488 1488 1489 1490 1490 1490 1490 1491 1491 1491 1492 1492 1492 1492 1492 1492 1493 1493 1493 1494 1495 1495 1496 1497
1462 1463 1464 1466 1467 1469 1470 1472 1474 1475 1476 1478 1480 1481 1483 1484 1485 1487 1487 1487 1488 1489 1491 1491 1491 1491 1491 1492 1493 1493 1493 1493 1493 1493 1493 1493 1493 1494 1494 1494 1495 1495 1495 1496
1464 1465 1466 1467 1469 1470 1471 1473 1474 1476 1477 1479 1480 1482 1483 1485 1486 1487 1488 1489 1489 1490 1491 1492 1492 1492 1493 1493 1494 1494 1494 1494 1494 1494 1493 1493 1493 1493 1493 1493 1494 1494 1494 1494
1466 1467 1468 1469 1471 1472 1473 1475 1476 1478 1479 1481 1482 1484 1485 1486 1487 1488 1489 1490 1490 1491 1492 1492 1493 1493 1494 1494 1494 1494 1494 1493 1493 1493 1493 1493 1493 1492 1492 1492 1492 1492 1492 1492
1469 1470 1471 1472 1473 1475 1476 1477 1479 1480 1482 1483 1484 1485 1486 1487 1488 1489 1490 1491 1492 1492 1493 1493 1493 1493 1494 1493 1493 1493 1493 1492 1492 1492 1491 1491 1491 1491 1490 1490 1490 1490 1490 1489